owner,sensor,date,latitude,longitude,vertical_datum,sea_water_temperature,qcFlag 
NERRS,ioos:station:NOAA.NERRS:gndpcwq:1,2016-02-01T16:00:00Z,30.3486,-88.4185,0.0,15.5,2 
NERRS,ioos:station:NOAA.NERRS:gndpcwq:1,2016-02-01T17:00:00Z,30.3486,-88.4185,0.0,15.6,2 
NERRS,ioos:station:NOAA.NERRS:gndpcwq:1,2016-02-01T18:00:00Z,30.3486,-88.4185,0.0,15.7,2 
NERRS,ioos:station:NOAA.NERRS:gndpcwq:1,2016-02-01T19:00:00Z,30.3486,-88.4185,0.0,15.7,2 
NERRS,ioos:station:NOAA.NERRS:gndpcwq:1,2016-02-01T20:00:00Z,30.3486,-88.4185,0.0,15.9,2 
NERRS,ioos:station:NOAA.NERRS:gndpcwq:1,2016-02-01T21:00:00Z,30.3486,-88.4185,0.0,16.1,2 
NERRS,ioos:station:NOAA.NERRS:gndpcwq:1,2016-02-01T22:00:00Z,30.3486,-88.4185,0.0,16.1,2 
NERRS,ioos:station:NOAA.NERRS:gndpcwq:1,2016-02-01T23:00:00Z,30.3486,-88.4185,0.0,16.1,2 
NERRS,ioos:station:NOAA.NERRS:gndpcwq:1,2016-02-02T00:00:00Z,30.3486,-88.4185,0.0,16.1,2 
NERRS,ioos:station:NOAA.NERRS:gndpcwq:1,2016-02-02T01:00:00Z,30.3486,-88.4185,0.0,16.1,2 
NERRS,ioos:station:NOAA.NERRS:gndpcwq:1,2016-02-02T02:00:00Z,30.3486,-88.4185,0.0,16.2,2 
NERRS,ioos:station:NOAA.NERRS:gndpcwq:1,2016-02-02T03:00:00Z,30.3486,-88.4185,0.0,16.3,2 
NERRS,ioos:station:NOAA.NERRS:gndpcwq:1,2016-02-02T04:00:00Z,30.3486,-88.4185,0.0,16.3,2 
NERRS,ioos:station:NOAA.NERRS:gndpcwq:1,2016-02-02T05:00:00Z,30.3486,-88.4185,0.0,16.6,2 
NERRS,ioos:station:NOAA.NERRS:gndpcwq:1,2016-02-02T06:00:00Z,30.3486,-88.4185,0.0,16.6,2 
NERRS,ioos:station:NOAA.NERRS:gndpcwq:1,2016-02-02T07:00:00Z,30.3486,-88.4185,0.0,16.8,2 
NERRS,ioos:station:NOAA.NERRS:gndpcwq:1,2016-02-02T08:00:00Z,30.3486,-88.4185,0.0,17.0,2 
NERRS,ioos:station:NOAA.NERRS:gndpcwq:1,2016-02-02T09:00:00Z,30.3486,-88.4185,0.0,16.8,2 
NERRS,ioos:station:NOAA.NERRS:gndpcwq:1,2016-02-02T10:00:00Z,30.3486,-88.4185,0.0,16.6,2 
NERRS,ioos:station:NOAA.NERRS:gndpcwq:1,2016-02-02T11:00:00Z,30.3486,-88.4185,0.0,16.4,2 
NERRS,ioos:station:NOAA.NERRS:gndpcwq:1,2016-02-02T12:00:00Z,30.3486,-88.4185,0.0,16.0,2 
NERRS,ioos:station:NOAA.NERRS:gndpcwq:1,2016-02-02T13:00:00Z,30.3486,-88.4185,0.0,16.0,2 
NERRS,ioos:station:NOAA.NERRS:gndpcwq:1,2016-02-02T14:00:00Z,30.3486,-88.4185,0.0,16.4,2 
NERRS,ioos:station:NOAA.NERRS:gndpcwq:1,2016-02-02T15:00:00Z,30.3486,-88.4185,0.0,16.6,2 
NERRS,ioos:station:NOAA.NERRS:gndpcwq:1,2016-02-02T18:00:00Z,30.3486,-88.4185,0.0,16.6,2 
NERRS,ioos:station:NOAA.NERRS:gndpcwq:1,2016-02-02T19:00:00Z,30.3486,-88.4185,0.0,16.6,2 
NERRS,ioos:station:NOAA.NERRS:gndpcwq:1,2016-02-02T20:00:00Z,30.3486,-88.4185,0.0,16.7,2 
NERRS,ioos:station:NOAA.NERRS:gndpcwq:1,2016-02-02T21:00:00Z,30.3486,-88.4185,0.0,16.7,2 
NERRS,ioos:station:NOAA.NERRS:gndpcwq:1,2016-02-02T22:00:00Z,30.3486,-88.4185,0.0,16.7,2 
NERRS,ioos:station:NOAA.NERRS:gndpcwq:1,2016-02-02T23:00:00Z,30.3486,-88.4185,0.0,16.6,2 
NERRS,ioos:station:NOAA.NERRS:gndpcwq:1,2016-02-03T00:00:00Z,30.3486,-88.4185,0.0,16.6,2 
NERRS,ioos:station:NOAA.NERRS:gndpcwq:1,2016-02-03T01:00:00Z,30.3486,-88.4185,0.0,16.5,2 
NERRS,ioos:station:NOAA.NERRS:gndpcwq:1,2016-02-03T02:00:00Z,30.3486,-88.4185,0.0,16.5,2 
NERRS,ioos:station:NOAA.NERRS:gndpcwq:1,2016-02-03T03:00:00Z,30.3486,-88.4185,0.0,16.5,2 
NERRS,ioos:station:NOAA.NERRS:gndpcwq:1,2016-02-03T04:00:00Z,30.3486,-88.4185,0.0,16.4,2 
NERRS,ioos:station:NOAA.NERRS:gndpcwq:1,2016-02-03T05:00:00Z,30.3486,-88.4185,0.0,17.4,2 
NERRS,ioos:station:NOAA.NERRS:gndpcwq:1,2016-02-03T06:00:00Z,30.3486,-88.4185,0.0,17.7,2 
NERRS,ioos:station:NOAA.NERRS:gndpcwq:1,2016-02-03T07:00:00Z,30.3486,-88.4185,0.0,17.8,2 
NERRS,ioos:station:NOAA.NERRS:gndpcwq:1,2016-02-03T08:00:00Z,30.3486,-88.4185,0.0,18.1,2 
NERRS,ioos:station:NOAA.NERRS:gndpcwq:1,2016-02-03T09:00:00Z,30.3486,-88.4185,0.0,18.1,2 
NERRS,ioos:station:NOAA.NERRS:gndpcwq:1,2016-02-03T10:00:00Z,30.3486,-88.4185,0.0,18.1,2 
NERRS,ioos:station:NOAA.NERRS:gndpcwq:1,2016-02-03T11:00:00Z,30.3486,-88.4185,0.0,18.1,2 
NERRS,ioos:station:NOAA.NERRS:gndpcwq:1,2016-02-03T12:00:00Z,30.3486,-88.4185,0.0,17.3,2 
NERRS,ioos:station:NOAA.NERRS:gndpcwq:1,2016-02-03T13:00:00Z,30.3486,-88.4185,0.0,17.3,2 
NERRS,ioos:station:NOAA.NERRS:gndpcwq:1,2016-02-03T14:00:00Z,30.3486,-88.4185,0.0,17.8,2 
NERRS,ioos:station:NOAA.NERRS:gndpcwq:1,2016-02-03T15:00:00Z,30.3486,-88.4185,0.0,17.6,2 
NERRS,ioos:station:NOAA.NERRS:gndpcwq:1,2016-02-03T16:00:00Z,30.3486,-88.4185,0.0,17.5,2 
NERRS,ioos:station:NOAA.NERRS:gndpcwq:1,2016-02-03T17:00:00Z,30.3486,-88.4185,0.0,17.0,2 
NERRS,ioos:station:NOAA.NERRS:gndpcwq:1,2016-02-03T18:00:00Z,30.3486,-88.4185,0.0,16.8,2 
NERRS,ioos:station:NOAA.NERRS:gndpcwq:1,2016-02-03T19:00:00Z,30.3486,-88.4185,0.0,16.9,2 
NERRS,ioos:station:NOAA.NERRS:gndpcwq:1,2016-02-03T20:00:00Z,30.3486,-88.4185,0.0,17.0,2 
NERRS,ioos:station:NOAA.NERRS:gndpcwq:1,2016-02-03T21:00:00Z,30.3486,-88.4185,0.0,17.1,2 
NERRS,ioos:station:NOAA.NERRS:gndpcwq:1,2016-02-03T22:00:00Z,30.3486,-88.4185,0.0,17.1,2 
NERRS,ioos:station:NOAA.NERRS:gndpcwq:1,2016-02-03T23:00:00Z,30.3486,-88.4185,0.0,17.0,2 
NERRS,ioos:station:NOAA.NERRS:gndpcwq:1,2016-02-04T00:00:00Z,30.3486,-88.4185,0.0,17.0,2 
NERRS,ioos:station:NOAA.NERRS:gndpcwq:1,2016-02-04T01:00:00Z,30.3486,-88.4185,0.0,17.0,2 
NERRS,ioos:station:NOAA.NERRS:gndpcwq:1,2016-02-04T02:00:00Z,30.3486,-88.4185,0.0,16.7,2 
NERRS,ioos:station:NOAA.NERRS:gndpcwq:1,2016-02-04T03:00:00Z,30.3486,-88.4185,0.0,16.6,2 
NERRS,ioos:station:NOAA.NERRS:gndpcwq:1,2016-02-04T04:00:00Z,30.3486,-88.4185,0.0,16.6,2 
NERRS,ioos:station:NOAA.NERRS:gndpcwq:1,2016-02-04T05:00:00Z,30.3486,-88.4185,0.0,16.5,2 
NERRS,ioos:station:NOAA.NERRS:gndpcwq:1,2016-02-04T06:00:00Z,30.3486,-88.4185,0.0,16.7,2 
NERRS,ioos:station:NOAA.NERRS:gndpcwq:1,2016-02-04T07:00:00Z,30.3486,-88.4185,0.0,16.3,2 
NERRS,ioos:station:NOAA.NERRS:gndpcwq:1,2016-02-04T08:00:00Z,30.3486,-88.4185,0.0,16.1,2 
NERRS,ioos:station:NOAA.NERRS:gndpcwq:1,2016-02-04T09:00:00Z,30.3486,-88.4185,0.0,15.7,2 
NERRS,ioos:station:NOAA.NERRS:gndpcwq:1,2016-02-04T10:00:00Z,30.3486,-88.4185,0.0,15.5,2 
NERRS,ioos:station:NOAA.NERRS:gndpcwq:1,2016-02-04T11:00:00Z,30.3486,-88.4185,0.0,14.9,2 
NERRS,ioos:station:NOAA.NERRS:gndpcwq:1,2016-02-04T12:00:00Z,30.3486,-88.4185,0.0,14.6,2 
NERRS,ioos:station:NOAA.NERRS:gndpcwq:1,2016-02-04T13:00:00Z,30.3486,-88.4185,0.0,14.7,2 
NERRS,ioos:station:NOAA.NERRS:gndpcwq:1,2016-02-04T14:00:00Z,30.3486,-88.4185,0.0,14.5,2 
NERRS,ioos:station:NOAA.NERRS:gndpcwq:1,2016-02-04T15:00:00Z,30.3486,-88.4185,0.0,14.5,2 
NERRS,ioos:station:NOAA.NERRS:gndpcwq:1,2016-02-04T16:00:00Z,30.3486,-88.4185,0.0,14.5,2 
NERRS,ioos:station:NOAA.NERRS:gndpcwq:1,2016-02-04T17:00:00Z,30.3486,-88.4185,0.0,14.9,2 
NERRS,ioos:station:NOAA.NERRS:gndpcwq:1,2016-02-04T18:00:00Z,30.3486,-88.4185,0.0,14.9,2 
NERRS,ioos:station:NOAA.NERRS:gndpcwq:1,2016-02-04T19:00:00Z,30.3486,-88.4185,0.0,14.9,2 
NERRS,ioos:station:NOAA.NERRS:gndpcwq:1,2016-02-04T20:00:00Z,30.3486,-88.4185,0.0,14.9,2 
NERRS,ioos:station:NOAA.NERRS:gndpcwq:1,2016-02-04T21:00:00Z,30.3486,-88.4185,0.0,14.8,2 
NERRS,ioos:station:NOAA.NERRS:gndpcwq:1,2016-02-04T22:00:00Z,30.3486,-88.4185,0.0,14.8,2 
NERRS,ioos:station:NOAA.NERRS:gndpcwq:1,2016-02-04T23:00:00Z,30.3486,-88.4185,0.0,14.6,2 
NERRS,ioos:station:NOAA.NERRS:gndpcwq:1,2016-02-05T00:00:00Z,30.3486,-88.4185,0.0,14.1,2 
NERRS,ioos:station:NOAA.NERRS:gndpcwq:1,2016-02-05T01:00:00Z,30.3486,-88.4185,0.0,13.9,2 
NERRS,ioos:station:NOAA.NERRS:gndpcwq:1,2016-02-05T02:00:00Z,30.3486,-88.4185,0.0,13.6,2 
NERRS,ioos:station:NOAA.NERRS:gndpcwq:1,2016-02-05T03:00:00Z,30.3486,-88.4185,0.0,13.4,2 
NERRS,ioos:station:NOAA.NERRS:gndpcwq:1,2016-02-05T04:00:00Z,30.3486,-88.4185,0.0,13.4,2 
NERRS,ioos:station:NOAA.NERRS:gndpcwq:1,2016-02-05T05:00:00Z,30.3486,-88.4185,0.0,13.2,2 
NERRS,ioos:station:NOAA.NERRS:gndpcwq:1,2016-02-05T06:00:00Z,30.3486,-88.4185,0.0,13.1,2 
NERRS,ioos:station:NOAA.NERRS:gndpcwq:1,2016-02-05T07:00:00Z,30.3486,-88.4185,0.0,12.8,2 
NERRS,ioos:station:NOAA.NERRS:gndpcwq:1,2016-02-05T08:00:00Z,30.3486,-88.4185,0.0,12.3,2 
NERRS,ioos:station:NOAA.NERRS:gndpcwq:1,2016-02-05T10:00:00Z,30.3486,-88.4185,0.0,11.8,2 
NERRS,ioos:station:NOAA.NERRS:gndpcwq:1,2016-02-05T11:00:00Z,30.3486,-88.4185,0.0,12.0,2 
NERRS,ioos:station:NOAA.NERRS:gndpcwq:1,2016-02-05T12:00:00Z,30.3486,-88.4185,0.0,10.9,2 
NERRS,ioos:station:NOAA.NERRS:gndpcwq:1,2016-02-05T13:00:00Z,30.3486,-88.4185,0.0,11.0,2 
NERRS,ioos:station:NOAA.NERRS:gndpcwq:1,2016-02-05T14:00:00Z,30.3486,-88.4185,0.0,11.3,2 
NERRS,ioos:station:NOAA.NERRS:gndpcwq:1,2016-02-05T15:00:00Z,30.3486,-88.4185,0.0,11.5,2 
NERRS,ioos:station:NOAA.NERRS:gndpcwq:1,2016-02-05T16:00:00Z,30.3486,-88.4185,0.0,11.7,2 
NERRS,ioos:station:NOAA.NERRS:gndpcwq:1,2016-02-05T17:00:00Z,30.3486,-88.4185,0.0,12.1,2 
NERRS,ioos:station:NOAA.NERRS:gndpcwq:1,2016-02-05T18:00:00Z,30.3486,-88.4185,0.0,12.5,2 
NERRS,ioos:station:NOAA.NERRS:gndpcwq:1,2016-02-05T19:00:00Z,30.3486,-88.4185,0.0,12.6,2 
NERRS,ioos:station:NOAA.NERRS:gndpcwq:1,2016-02-05T20:00:00Z,30.3486,-88.4185,0.0,13.0,2 
NERRS,ioos:station:NOAA.NERRS:gndpcwq:1,2016-02-05T21:00:00Z,30.3486,-88.4185,0.0,12.4,2 
NERRS,ioos:station:NOAA.NERRS:gndpcwq:1,2016-02-05T23:00:00Z,30.3486,-88.4185,0.0,13.5,2 
NERRS,ioos:station:NOAA.NERRS:gndpcwq:1,2016-02-06T00:00:00Z,30.3486,-88.4185,0.0,14.0,2 
NERRS,ioos:station:NOAA.NERRS:gndpcwq:1,2016-02-06T01:00:00Z,30.3486,-88.4185,0.0,13.9,2 
NERRS,ioos:station:NOAA.NERRS:gndpcwq:1,2016-02-06T02:00:00Z,30.3486,-88.4185,0.0,13.9,2 
NERRS,ioos:station:NOAA.NERRS:gndpcwq:1,2016-02-06T03:00:00Z,30.3486,-88.4185,0.0,13.9,2 
NERRS,ioos:station:NOAA.NERRS:gndpcwq:1,2016-02-06T04:00:00Z,30.3486,-88.4185,0.0,13.8,2 
NERRS,ioos:station:NOAA.NERRS:gndpcwq:1,2016-02-06T05:00:00Z,30.3486,-88.4185,0.0,13.9,2 
NERRS,ioos:station:NOAA.NERRS:gndpcwq:1,2016-02-06T06:00:00Z,30.3486,-88.4185,0.0,13.8,2 
NERRS,ioos:station:NOAA.NERRS:gndpcwq:1,2016-02-06T07:00:00Z,30.3486,-88.4185,0.0,13.9,2 
NERRS,ioos:station:NOAA.NERRS:gndpcwq:1,2016-02-06T08:00:00Z,30.3486,-88.4185,0.0,13.9,2 
NERRS,ioos:station:NOAA.NERRS:gndpcwq:1,2016-02-06T09:00:00Z,30.3486,-88.4185,0.0,13.9,2 
NERRS,ioos:station:NOAA.NERRS:gndpcwq:1,2016-02-06T10:00:00Z,30.3486,-88.4185,0.0,13.8,2 
NERRS,ioos:station:NOAA.NERRS:gndpcwq:1,2016-02-06T11:00:00Z,30.3486,-88.4185,0.0,13.7,2 
NERRS,ioos:station:NOAA.NERRS:gndpcwq:1,2016-02-06T12:00:00Z,30.3486,-88.4185,0.0,12.2,2 
NERRS,ioos:station:NOAA.NERRS:gndpcwq:1,2016-02-06T13:00:00Z,30.3486,-88.4185,0.0,11.7,2 
NERRS,ioos:station:NOAA.NERRS:gndpcwq:1,2016-02-06T14:00:00Z,30.3486,-88.4185,0.0,11.9,2 
NERRS,ioos:station:NOAA.NERRS:gndpcwq:1,2016-02-06T15:00:00Z,30.3486,-88.4185,0.0,12.0,2 
NERRS,ioos:station:NOAA.NERRS:gndpcwq:1,2016-02-06T16:00:00Z,30.3486,-88.4185,0.0,12.2,2 
NERRS,ioos:station:NOAA.NERRS:gndpcwq:1,2016-02-06T17:00:00Z,30.3486,-88.4185,0.0,11.8,2 
NERRS,ioos:station:NOAA.NERRS:gndpcwq:1,2016-02-06T18:00:00Z,30.3486,-88.4185,0.0,13.3,2 
NERRS,ioos:station:NOAA.NERRS:gndpcwq:1,2016-02-06T19:00:00Z,30.3486,-88.4185,0.0,14.0,2 
NERRS,ioos:station:NOAA.NERRS:gndpcwq:1,2016-02-06T20:00:00Z,30.3486,-88.4185,0.0,14.1,2 
NERRS,ioos:station:NOAA.NERRS:gndpcwq:1,2016-02-06T21:00:00Z,30.3486,-88.4185,0.0,14.2,2 
NERRS,ioos:station:NOAA.NERRS:gndpcwq:1,2016-02-06T22:00:00Z,30.3486,-88.4185,0.0,14.2,2 
NERRS,ioos:station:NOAA.NERRS:gndpcwq:1,2016-02-06T23:00:00Z,30.3486,-88.4185,0.0,14.0,2 
NERRS,ioos:station:NOAA.NERRS:gndpcwq:1,2016-02-07T00:00:00Z,30.3486,-88.4185,0.0,13.8,2 
NERRS,ioos:station:NOAA.NERRS:gndpcwq:1,2016-02-07T01:00:00Z,30.3486,-88.4185,0.0,13.5,2 
NERRS,ioos:station:NOAA.NERRS:gndpcwq:1,2016-02-07T02:00:00Z,30.3486,-88.4185,0.0,13.5,2 
NERRS,ioos:station:NOAA.NERRS:gndpcwq:1,2016-02-07T03:00:00Z,30.3486,-88.4185,0.0,13.5,2 
NERRS,ioos:station:NOAA.NERRS:gndpcwq:1,2016-02-07T04:00:00Z,30.3486,-88.4185,0.0,13.5,2 
NERRS,ioos:station:NOAA.NERRS:gndpcwq:1,2016-02-07T05:00:00Z,30.3486,-88.4185,0.0,13.4,2 
NERRS,ioos:station:NOAA.NERRS:gndpcwq:1,2016-02-07T06:00:00Z,30.3486,-88.4185,0.0,13.2,2 
NERRS,ioos:station:NOAA.NERRS:gndpcwq:1,2016-02-07T07:00:00Z,30.3486,-88.4185,0.0,13.2,2 
NERRS,ioos:station:NOAA.NERRS:gndpcwq:1,2016-02-07T08:00:00Z,30.3486,-88.4185,0.0,13.3,2 
NERRS,ioos:station:NOAA.NERRS:gndpcwq:1,2016-02-07T09:00:00Z,30.3486,-88.4185,0.0,11.1,2 
NERRS,ioos:station:NOAA.NERRS:gndpcwq:1,2016-02-07T10:00:00Z,30.3486,-88.4185,0.0,11.4,2 
NERRS,ioos:station:NOAA.NERRS:gndpcwq:1,2016-02-07T11:00:00Z,30.3486,-88.4185,0.0,11.0,2 
NERRS,ioos:station:NOAA.NERRS:gndpcwq:1,2016-02-13T17:00:00Z,30.3486,-88.4185,0.0,13.3,2 
NERRS,ioos:station:NOAA.NERRS:gndpcwq:1,2016-02-13T18:00:00Z,30.3486,-88.4185,0.0,12.0,2 
NERRS,ioos:station:NOAA.NERRS:gndpcwq:1,2016-02-13T19:00:00Z,30.3486,-88.4185,0.0,12.8,2 
NERRS,ioos:station:NOAA.NERRS:gndpcwq:1,2016-02-13T20:00:00Z,30.3486,-88.4185,0.0,13.3,2 
NERRS,ioos:station:NOAA.NERRS:gndpcwq:1,2016-02-13T21:00:00Z,30.3486,-88.4185,0.0,13.4,2 
NERRS,ioos:station:NOAA.NERRS:gndpcwq:1,2016-02-13T22:00:00Z,30.3486,-88.4185,0.0,13.4,2 
NERRS,ioos:station:NOAA.NERRS:gndpcwq:1,2016-02-13T23:00:00Z,30.3486,-88.4185,0.0,13.0,2 
NERRS,ioos:station:NOAA.NERRS:gndpcwq:1,2016-02-14T00:00:00Z,30.3486,-88.4185,0.0,13.0,2 
NERRS,ioos:station:NOAA.NERRS:gndpcwq:1,2016-02-14T01:00:00Z,30.3486,-88.4185,0.0,12.9,2 
NERRS,ioos:station:NOAA.NERRS:gndpcwq:1,2016-02-14T02:00:00Z,30.3486,-88.4185,0.0,13.0,2 
NERRS,ioos:station:NOAA.NERRS:gndpcwq:1,2016-02-14T03:00:00Z,30.3486,-88.4185,0.0,12.9,2 
NERRS,ioos:station:NOAA.NERRS:gndpcwq:1,2016-02-14T04:00:00Z,30.3486,-88.4185,0.0,13.0,2 
NERRS,ioos:station:NOAA.NERRS:gndpcwq:1,2016-02-14T05:00:00Z,30.3486,-88.4185,0.0,13.0,2 
NERRS,ioos:station:NOAA.NERRS:gndpcwq:1,2016-02-14T06:00:00Z,30.3486,-88.4185,0.0,12.5,2 
NERRS,ioos:station:NOAA.NERRS:gndpcwq:1,2016-02-14T07:00:00Z,30.3486,-88.4185,0.0,12.4,2 
NERRS,ioos:station:NOAA.NERRS:gndpcwq:1,2016-02-14T08:00:00Z,30.3486,-88.4185,0.0,12.3,2 
NERRS,ioos:station:NOAA.NERRS:gndpcwq:1,2016-02-14T09:00:00Z,30.3486,-88.4185,0.0,12.1,2 
NERRS,ioos:station:NOAA.NERRS:gndpcwq:1,2016-02-14T10:00:00Z,30.3486,-88.4185,0.0,12.7,2 
NERRS,ioos:station:NOAA.NERRS:gndpcwq:1,2016-02-14T11:00:00Z,30.3486,-88.4185,0.0,12.8,2 
NERRS,ioos:station:NOAA.NERRS:gndpcwq:1,2016-02-14T12:00:00Z,30.3486,-88.4185,0.0,12.7,2 
NERRS,ioos:station:NOAA.NERRS:gndpcwq:1,2016-02-14T13:00:00Z,30.3486,-88.4185,0.0,12.6,2 
NERRS,ioos:station:NOAA.NERRS:gndpcwq:1,2016-02-14T14:00:00Z,30.3486,-88.4185,0.0,12.2,2 
NERRS,ioos:station:NOAA.NERRS:gndpcwq:1,2016-02-14T15:00:00Z,30.3486,-88.4185,0.0,12.2,2 
NERRS,ioos:station:NOAA.NERRS:gndpcwq:1,2016-02-14T16:00:00Z,30.3486,-88.4185,0.0,12.0,2 
NERRS,ioos:station:NOAA.NERRS:gndpcwq:1,2016-02-14T17:00:00Z,30.3486,-88.4185,0.0,12.0,2 
NERRS,ioos:station:NOAA.NERRS:gndpcwq:1,2016-02-14T18:00:00Z,30.3486,-88.4185,0.0,12.0,2 
NERRS,ioos:station:NOAA.NERRS:gndpcwq:1,2016-02-14T19:00:00Z,30.3486,-88.4185,0.0,12.2,2 
NERRS,ioos:station:NOAA.NERRS:gndpcwq:1,2016-02-14T20:00:00Z,30.3486,-88.4185,0.0,12.5,2 
NERRS,ioos:station:NOAA.NERRS:gndpcwq:1,2016-02-14T21:00:00Z,30.3486,-88.4185,0.0,12.6,2 
NERRS,ioos:station:NOAA.NERRS:gndpcwq:1,2016-02-14T22:00:00Z,30.3486,-88.4185,0.0,12.6,2 
NERRS,ioos:station:NOAA.NERRS:gndpcwq:1,2016-02-14T23:00:00Z,30.3486,-88.4185,0.0,12.6,2 
NERRS,ioos:station:NOAA.NERRS:gndpcwq:1,2016-02-15T00:00:00Z,30.3486,-88.4185,0.0,12.7,2 
NERRS,ioos:station:NOAA.NERRS:gndpcwq:1,2016-02-15T01:00:00Z,30.3486,-88.4185,0.0,12.7,2 
NERRS,ioos:station:NOAA.NERRS:gndpcwq:1,2016-02-15T02:00:00Z,30.3486,-88.4185,0.0,12.8,2 
NERRS,ioos:station:NOAA.NERRS:gndpcwq:1,2016-02-15T03:00:00Z,30.3486,-88.4185,0.0,12.8,2 
NERRS,ioos:station:NOAA.NERRS:gndpcwq:1,2016-02-15T04:00:00Z,30.3486,-88.4185,0.0,13.0,2 
NERRS,ioos:station:NOAA.NERRS:gndpcwq:1,2016-02-15T05:00:00Z,30.3486,-88.4185,0.0,13.2,2 
NERRS,ioos:station:NOAA.NERRS:gndpcwq:1,2016-02-15T06:00:00Z,30.3486,-88.4185,0.0,13.3,2 
NERRS,ioos:station:NOAA.NERRS:gndpcwq:1,2016-02-15T07:00:00Z,30.3486,-88.4185,0.0,13.3,2 
NERRS,ioos:station:NOAA.NERRS:gndpcwq:1,2016-02-15T08:00:00Z,30.3486,-88.4185,0.0,13.4,2 
NERRS,ioos:station:NOAA.NERRS:gndpcwq:1,2016-02-15T09:00:00Z,30.3486,-88.4185,0.0,13.5,2 
NERRS,ioos:station:NOAA.NERRS:gndpcwq:1,2016-02-15T10:00:00Z,30.3486,-88.4185,0.0,13.5,2 
NERRS,ioos:station:NOAA.NERRS:gndpcwq:1,2016-02-15T11:00:00Z,30.3486,-88.4185,0.0,13.5,2 
NERRS,ioos:station:NOAA.NERRS:gndpcwq:1,2016-02-15T12:00:00Z,30.3486,-88.4185,0.0,13.5,2 
NERRS,ioos:station:NOAA.NERRS:gndpcwq:1,2016-02-15T13:00:00Z,30.3486,-88.4185,0.0,13.6,2 
NERRS,ioos:station:NOAA.NERRS:gndpcwq:1,2016-02-15T14:00:00Z,30.3486,-88.4185,0.0,13.6,2 
NERRS,ioos:station:NOAA.NERRS:gndpcwq:1,2016-02-15T15:00:00Z,30.3486,-88.4185,0.0,13.5,2 
NERRS,ioos:station:NOAA.NERRS:gndpcwq:1,2016-02-15T16:00:00Z,30.3486,-88.4185,0.0,13.8,2 
NERRS,ioos:station:NOAA.NERRS:gndpcwq:1,2016-02-15T17:00:00Z,30.3486,-88.4185,0.0,14.1,2 
NERRS,ioos:station:NOAA.NERRS:gndpcwq:1,2016-02-15T18:00:00Z,30.3486,-88.4185,0.0,14.2,2 
NERRS,ioos:station:NOAA.NERRS:gndpcwq:1,2016-02-15T19:00:00Z,30.3486,-88.4185,0.0,14.3,2 
NERRS,ioos:station:NOAA.NERRS:gndpcwq:1,2016-02-15T20:00:00Z,30.3486,-88.4185,0.0,14.4,2 
NERRS,ioos:station:NOAA.NERRS:gndpcwq:1,2016-02-15T21:00:00Z,30.3486,-88.4185,0.0,14.4,2 
NERRS,ioos:station:NOAA.NERRS:gndpcwq:1,2016-02-15T22:00:00Z,30.3486,-88.4185,0.0,14.3,2 
NERRS,ioos:station:NOAA.NERRS:gndpcwq:1,2016-02-15T23:00:00Z,30.3486,-88.4185,0.0,14.6,2 
NERRS,ioos:station:NOAA.NERRS:gndpcwq:1,2016-02-16T00:00:00Z,30.3486,-88.4185,0.0,14.7,2 
NERRS,ioos:station:NOAA.NERRS:gndpcwq:1,2016-02-16T01:00:00Z,30.3486,-88.4185,0.0,14.7,2 
NERRS,ioos:station:NOAA.NERRS:gndpcwq:1,2016-02-16T02:00:00Z,30.3486,-88.4185,0.0,14.8,2 
NERRS,ioos:station:NOAA.NERRS:gndpcwq:1,2016-02-16T03:00:00Z,30.3486,-88.4185,0.0,15.2,2 
NERRS,ioos:station:NOAA.NERRS:gndpcwq:1,2016-02-16T04:00:00Z,30.3486,-88.4185,0.0,15.1,2 
NERRS,ioos:station:NOAA.NERRS:gndpcwq:1,2016-02-16T05:00:00Z,30.3486,-88.4185,0.0,15.1,2 
NERRS,ioos:station:NOAA.NERRS:gndpcwq:1,2016-02-16T06:00:00Z,30.3486,-88.4185,0.0,15.0,2 
NERRS,ioos:station:NOAA.NERRS:gndpcwq:1,2016-02-16T07:00:00Z,30.3486,-88.4185,0.0,14.9,2 
NERRS,ioos:station:NOAA.NERRS:gndpcwq:1,2016-02-16T08:00:00Z,30.3486,-88.4185,0.0,14.6,2 
NERRS,ioos:station:NOAA.NERRS:gndpcwq:1,2016-02-16T09:00:00Z,30.3486,-88.4185,0.0,14.6,2 
NERRS,ioos:station:NOAA.NERRS:gndpcwq:1,2016-02-16T10:00:00Z,30.3486,-88.4185,0.0,14.5,2 
NERRS,ioos:station:NOAA.NERRS:gndpcwq:1,2016-02-16T11:00:00Z,30.3486,-88.4185,0.0,14.2,2 
NERRS,ioos:station:NOAA.NERRS:gndpcwq:1,2016-02-16T12:00:00Z,30.3486,-88.4185,0.0,14.1,2 
NERRS,ioos:station:NOAA.NERRS:gndpcwq:1,2016-02-16T13:00:00Z,30.3486,-88.4185,0.0,14.2,2 
NERRS,ioos:station:NOAA.NERRS:gndpcwq:1,2016-02-16T14:00:00Z,30.3486,-88.4185,0.0,14.1,2 
NERRS,ioos:station:NOAA.NERRS:gndpcwq:1,2016-02-16T15:00:00Z,30.3486,-88.4185,0.0,14.0,2 
NERRS,ioos:station:NOAA.NERRS:gndpcwq:1,2016-02-16T16:00:00Z,30.3486,-88.4185,0.0,14.1,2 
NERRS,ioos:station:NOAA.NERRS:gndpcwq:1,2016-02-16T17:00:00Z,30.3486,-88.4185,0.0,14.1,2 
NERRS,ioos:station:NOAA.NERRS:gndpcwq:1,2016-02-16T18:00:00Z,30.3486,-88.4185,0.0,14.3,2 
NERRS,ioos:station:NOAA.NERRS:gndpcwq:1,2016-02-16T19:00:00Z,30.3486,-88.4185,0.0,14.4,2 
NERRS,ioos:station:NOAA.NERRS:gndpcwq:1,2016-02-16T20:00:00Z,30.3486,-88.4185,0.0,14.8,2 
NERRS,ioos:station:NOAA.NERRS:gndpcwq:1,2016-02-16T21:00:00Z,30.3486,-88.4185,0.0,15.3,2 
NERRS,ioos:station:NOAA.NERRS:gndpcwq:1,2016-02-16T22:00:00Z,30.3486,-88.4185,0.0,15.4,2 
NERRS,ioos:station:NOAA.NERRS:gndpcwq:1,2016-02-16T23:00:00Z,30.3486,-88.4185,0.0,15.4,2 
NERRS,ioos:station:NOAA.NERRS:gndpcwq:1,2016-02-17T00:00:00Z,30.3486,-88.4185,0.0,15.5,2 
NERRS,ioos:station:NOAA.NERRS:gndpcwq:1,2016-02-17T01:00:00Z,30.3486,-88.4185,0.0,15.4,2 
NERRS,ioos:station:NOAA.NERRS:gndpcwq:1,2016-02-17T02:00:00Z,30.3486,-88.4185,0.0,15.2,2 
NERRS,ioos:station:NOAA.NERRS:gndpcwq:1,2016-02-17T03:00:00Z,30.3486,-88.4185,0.0,15.2,2 
NERRS,ioos:station:NOAA.NERRS:gndpcwq:1,2016-02-17T04:00:00Z,30.3486,-88.4185,0.0,15.3,2 
NERRS,ioos:station:NOAA.NERRS:gndpcwq:1,2016-02-17T05:00:00Z,30.3486,-88.4185,0.0,15.8,2 
NERRS,ioos:station:NOAA.NERRS:gndpcwq:1,2016-02-17T06:00:00Z,30.3486,-88.4185,0.0,15.7,2 
NERRS,ioos:station:NOAA.NERRS:gndpcwq:1,2016-02-17T07:00:00Z,30.3486,-88.4185,0.0,15.5,2 
NERRS,ioos:station:NOAA.NERRS:gndpcwq:1,2016-02-17T08:00:00Z,30.3486,-88.4185,0.0,15.4,2 
NERRS,ioos:station:NOAA.NERRS:gndpcwq:1,2016-02-17T09:00:00Z,30.3486,-88.4185,0.0,15.2,2 
NERRS,ioos:station:NOAA.NERRS:gndpcwq:1,2016-02-17T10:00:00Z,30.3486,-88.4185,0.0,14.9,2 
NERRS,ioos:station:NOAA.NERRS:gndpcwq:1,2016-02-17T11:00:00Z,30.3486,-88.4185,0.0,14.7,2 
NERRS,ioos:station:NOAA.NERRS:gndpcwq:1,2016-02-17T12:00:00Z,30.3486,-88.4185,0.0,14.6,2 
NERRS,ioos:station:NOAA.NERRS:gndpcwq:1,2016-02-17T13:00:00Z,30.3486,-88.4185,0.0,14.6,2 
NERRS,ioos:station:NOAA.NERRS:gndpcwq:1,2016-02-17T14:00:00Z,30.3486,-88.4185,0.0,14.6,2 
NERRS,ioos:station:NOAA.NERRS:gndpcwq:1,2016-02-17T15:00:00Z,30.3486,-88.4185,0.0,14.7,2 
NERRS,ioos:station:NOAA.NERRS:gndpcwq:1,2016-02-17T16:00:00Z,30.3486,-88.4185,0.0,14.9,2 
NERRS,ioos:station:NOAA.NERRS:gndpcwq:1,2016-02-17T17:00:00Z,30.3486,-88.4185,0.0,15.1,2 
NERRS,ioos:station:NOAA.NERRS:gndpcwq:1,2016-02-17T18:00:00Z,30.3486,-88.4185,0.0,15.2,2 
NERRS,ioos:station:NOAA.NERRS:gndpcwq:1,2016-02-17T19:00:00Z,30.3486,-88.4185,0.0,15.4,2 
NERRS,ioos:station:NOAA.NERRS:gndpcwq:1,2016-02-17T20:00:00Z,30.3486,-88.4185,0.0,15.5,2 
NERRS,ioos:station:NOAA.NERRS:gndpcwq:1,2016-02-17T21:00:00Z,30.3486,-88.4185,0.0,15.6,2 
NERRS,ioos:station:NOAA.NERRS:gndpcwq:1,2016-02-17T22:00:00Z,30.3486,-88.4185,0.0,15.7,2 
NERRS,ioos:station:NOAA.NERRS:gndpcwq:1,2016-02-17T23:00:00Z,30.3486,-88.4185,0.0,15.6,2 
NERRS,ioos:station:NOAA.NERRS:gndpcwq:1,2016-02-18T00:00:00Z,30.3486,-88.4185,0.0,15.5,2 
NERRS,ioos:station:NOAA.NERRS:gndpcwq:1,2016-02-18T01:00:00Z,30.3486,-88.4185,0.0,15.5,2 
NERRS,ioos:station:NOAA.NERRS:gndpcwq:1,2016-02-18T02:00:00Z,30.3486,-88.4185,0.0,15.4,2 
NERRS,ioos:station:NOAA.NERRS:gndpcwq:1,2016-02-18T03:00:00Z,30.3486,-88.4185,0.0,15.4,2 
NERRS,ioos:station:NOAA.NERRS:gndpcwq:1,2016-02-18T04:00:00Z,30.3486,-88.4185,0.0,15.4,2 
NERRS,ioos:station:NOAA.NERRS:gndpcwq:1,2016-02-18T05:00:00Z,30.3486,-88.4185,0.0,15.4,2 
NERRS,ioos:station:NOAA.NERRS:gndpcwq:1,2016-02-18T06:00:00Z,30.3486,-88.4185,0.0,15.3,2 
NERRS,ioos:station:NOAA.NERRS:gndpcwq:1,2016-02-18T07:00:00Z,30.3486,-88.4185,0.0,15.3,2 
NERRS,ioos:station:NOAA.NERRS:gndpcwq:1,2016-02-18T08:00:00Z,30.3486,-88.4185,0.0,15.2,2 
NERRS,ioos:station:NOAA.NERRS:gndpcwq:1,2016-02-18T09:00:00Z,30.3486,-88.4185,0.0,15.2,2 
NERRS,ioos:station:NOAA.NERRS:gndpcwq:1,2016-02-18T10:00:00Z,30.3486,-88.4185,0.0,15.2,2 
NERRS,ioos:station:NOAA.NERRS:gndpcwq:1,2016-02-18T11:00:00Z,30.3486,-88.4185,0.0,15.2,2 
NERRS,ioos:station:NOAA.NERRS:gndpcwq:1,2016-02-18T12:00:00Z,30.3486,-88.4185,0.0,15.0,2 
NERRS,ioos:station:NOAA.NERRS:gndpcwq:1,2016-02-18T13:00:00Z,30.3486,-88.4185,0.0,14.8,2 
NERRS,ioos:station:NOAA.NERRS:gndpcwq:1,2016-02-18T14:00:00Z,30.3486,-88.4185,0.0,14.8,2 
NERRS,ioos:station:NOAA.NERRS:gndpcwq:1,2016-02-18T15:00:00Z,30.3486,-88.4185,0.0,14.5,2 
NERRS,ioos:station:NOAA.NERRS:gndpcwq:1,2016-02-18T16:00:00Z,30.3486,-88.4185,0.0,14.6,2 
NERRS,ioos:station:NOAA.NERRS:gndpcwq:1,2016-02-18T17:00:00Z,30.3486,-88.4185,0.0,14.5,2 
NERRS,ioos:station:NOAA.NERRS:gndpcwq:1,2016-02-18T18:00:00Z,30.3486,-88.4185,0.0,14.9,2 
NERRS,ioos:station:NOAA.NERRS:gndpcwq:1,2016-02-18T19:00:00Z,30.3486,-88.4185,0.0,15.2,2 
NERRS,ioos:station:NOAA.NERRS:gndpcwq:1,2016-02-18T20:00:00Z,30.3486,-88.4185,0.0,15.5,2 
NERRS,ioos:station:NOAA.NERRS:gndpcwq:1,2016-02-18T21:00:00Z,30.3486,-88.4185,0.0,15.6,2 
NERRS,ioos:station:NOAA.NERRS:gndpcwq:1,2016-02-18T22:00:00Z,30.3486,-88.4185,0.0,15.7,2 
NERRS,ioos:station:NOAA.NERRS:gndpcwq:1,2016-02-18T23:00:00Z,30.3486,-88.4185,0.0,15.7,2 
NERRS,ioos:station:NOAA.NERRS:gndpcwq:1,2016-02-19T00:00:00Z,30.3486,-88.4185,0.0,15.8,2 
NERRS,ioos:station:NOAA.NERRS:gndpcwq:1,2016-02-19T01:00:00Z,30.3486,-88.4185,0.0,15.8,2 